Current Version              Previous Version:    01  02  03  04  05  06  07  08  09  10  11  12  13  14  15  16  17  18  19  20  21  22  23  24  25  26  27  28  29  30  
   31  32  33  34  35  36  37  38  39  40  41  42  43  44  45  46  47  48  49  50  51  52  53  54  55  56  57  58  59  60  

[Printable]
568
ASUS44 KLUB 311201
RWRTX
WEST TEXAS WEATHER ROUNDUP
NATIONAL WEATHER SERVICE LUBBOCK TX
700 AM CDT FRI OCT 31 2014

NOTE: "FAIR" INDICATES FEW OR NO CLOUDS BELOW 12,000 FEET WITH NO
SIGNIFICANT WEATHER AND/OR OBSTRUCTIONS TO VISIBILITY.

TXZ004-006>008-010-012-014-016-OKZ002-311300-
TEXAS PANHANDLE/OKLAHOMA PANHANDLE

CITY           SKY/WX    TMP DP  RH WIND       PRES   REMARKS
AMARILLO       CLEAR     37  30  75 NE8       30.42R WCI  31
BORGER         CLEAR     42  29  59 NE6       30.43R
CANADIAN       CLEAR     41  35  79 CALM      30.42R
DALHART        CLEAR     39  29  67 NE8       30.44R WCI  33
DUMAS            N/A     32  27  80 CALM      30.43S
GUYMON         CLEAR     34  29  82 N7        30.45R WCI  28
HEREFORD       CLEAR     38  32  79 N6        30.42R WCI  33
PAMPA          CLEAR     38  32  77 NE6       30.43R WCI  34
$$

TXZ026-029-035-045-048-311300-
SOUTHERN PANHANDLE/SOUTH PLAINS/ROLLING PLAINS

CITY           SKY/WX    TMP DP  RH WIND       PRES   REMARKS
CHILDRESS      CLEAR     44  32  62 NW7       30.40R
SEMINOLE       CLEAR     45  33  62 N5        30.37R
LUBBOCK        CLEAR     39  31  72 N7        30.37R WCI  34
PLAINVIEW      CLEAR     45  31  57 NE8       30.38R
SNYDER         CLEAR     50  35  55 NE8       30.35R
$$

TXZ052-054-060>062-072-078-127-140-154-169-311300-
PERMIAN BASIN/CONCHO VALLEY/BIG COUNTRY/EDWARDS PLATEAU

CITY           SKY/WX    TMP DP  RH WIND       PRES   REMARKS
ABILENE        CLEAR     49  38  65 N6        30.33R
BIG SPRING     CLEAR     53  38  57 NE5       30.35S
JUNCTION       PTCLDY    63  50  62 NE10      30.26R
MIDLAND        CLEAR     49  37  63 N7        30.33R
ODESSA         CLEAR     49  37  63 NE8       30.34R
SAN ANGELO     CLEAR     58  41  53 NE8       30.30R
SONORA         PTCLDY    63  52  67 NE9       30.31R
SWEETWATER     CLEAR     51  35  54 N3        30.37R
WINK           CLEAR     52  38  58 N6        30.32R
$$

TXZ055-058-074-075-080-082-311300-
FAR WEST/SOUTHWEST MOUNTAINS/TRANS PECOS

CITY           SKY/WX    TMP DP  RH WIND       PRES   REMARKS
ALPINE         CLOUDY    58  53  85 E8        30.40R
DRYDEN           N/A     67  57  70 NE12      30.23R
EL PASO        PTCLDY    58  48  69 CALM      30.29R
FORT STOCKTON  CLOUDY    61  53  75 NE7       30.31R
MARFA          PTCLDY    54  52  94 NE6       30.35R
PECOS          CLOUDY    60  42  51 N7        30.33R
PRESIDIO       FAIR      65  53  63 MISG      30.23R
$$

TXZ014-016-019-021>030-083-311300
TEXAS TECH WEST TEXAS MESONET/TEXAS PANHANDLE/NORTHERN SOUTH PLAINS

CITY           SKY/WX    TMP DP  RH WIND       PRES   REMARKS
ABERNATHY 5ENE   N/A     44  32  62 NE12      30.38R
AMARILLO 9NNE    N/A     31  27  85 SE1       30.43R
AMARILLO 7SSE    N/A     36  30  80 N8        30.42R WCI  29
AMHERST 1NE      N/A     37  30  75 N7        30.39R WCI  32
BOOTLEG 11WNW    N/A     42  26  53 E7        30.43R
CANADIAN 6E      N/A     42  33  73 N16       30.39S
CAPROCK CYN SP   N/A     49  31  51 N6        30.40R
CHILDRESS 2NNE   N/A     44  32  63 N8        30.37R
CLARENDON 2WSW   N/A     40  31  71 NE3       30.40R
CLAUDE 12SW      N/A     39  31  75 N9        30.41R WCI  32
DIMMITT 2NE      N/A     35  29  78 N7        30.40R WCI  30
FLOYDADA 2NNE    N/A     37  30  75 NE9       30.38R WCI  31
FRIONA 2NE       N/A     35  30  83 N3        30.41R
GOODLETT 3W      N/A     48  34  57 N12       30.36R
HART 3N          N/A     38  31  74 NE8       30.39R WCI  32
HEREFORD 2NW     N/A     34  28  79 N3        30.41R
MCLEAN 1E        N/A     38  31  75 NW8       30.39R WCI  32
MEMPHIS 1NE      N/A     46  33  59 N5        30.39R
MULESHOE 2SSW    N/A     30  26  86 W2        30.40R
OLTON 6S         N/A     39  31  73 N6        30.38S WCI  34
PALO DURO SP     N/A     45  30  55 N2        30.42R
PAMPA 2E         N/A     37  32  81 N5        30.41R WCI  33
PLAINVIEW 1S     N/A     45  31  57 NE8       30.38S
SILVERTON 7ESE   N/A     46  30  54 NE9       30.39S
TULIA 2ENE       N/A     35  29  80 N6        30.40R WCI  30
TURKEY 2WSW      N/A     45  31  58 N7        30.38R
UMBARGER 3NNE    N/A     35  28  74 CALM      30.42R
$$

TXZ033>036-039>041-045>048-311300
TEXAS TECH WEST TEXAS MESONET/SOUTH PLAINS

CITY           SKY/WX    TMP DP  RH WIND       PRES   REMARKS
AIKEN 3WSW       N/A     37  31  79 N7        30.40R WCI  31
ANTON 6SSW       N/A     37  32  82 N5        30.38R WCI  33
BROWNFIELD 2S    N/A     43  31  61 N3        30.37R
DENVR CTY 7WNW   N/A     39  32  76 N7        30.36S WCI  34
GAIL 2ESE        N/A     45  35  68 N6        30.34R
LAMESA 2SE       N/A     48  33  55 NE7       30.35R
LEVELLAND 4S     N/A     39  30  70 N5        30.38R
LUBBOCK 3WNW     N/A     38  31  74 N1        30.38R
MORTON 1ENE      N/A     34  30  83 NW5       30.39R WCI  30
ODONNELL 1N      N/A     44  32  62 NE5       30.36R
PLAINS 3N        N/A     42  30  62 N8        30.37S
RALLS 1SE        N/A     44  31  60 N7        30.38R
REESE CENTER     N/A     37  31  79 N7        30.37S WCI  32
SEMINOLE 2NNE    N/A     43  33  67 N7        30.36R
SLATON 2NE       N/A     46  31  56 NE8       30.37R
SNYDER 3E        N/A     50  35  55 N12       30.33R
SUNDOWN 8SW      N/A     35  29  77 N7        30.38R WCI  30
TAHOKA 3NNE      N/A     45  31  58 NE8       30.35S
WOLFFORTH 6SSW   N/A     38  33  82 N6        30.37R WCI  34
$$

TXZ031-032-036>038-042>044-311300-
TEXAS TECH WEST TEXAS MESONET/ROLLING PLAINS

CITY           SKY/WX    TMP DP  RH WIND       PRES   REMARKS
ASPERMONT 3NE    N/A     42  35  76 W2        30.35R
FLUVANNA 3WNW    N/A     47  35  65 N5        30.34R
GRAHAM 5SSW      N/A     51  30  45 N15       30.35R
GUTHRIE 10WSW    N/A     47  32  55 N9        30.36R
HASKELL 1NW      N/A     48  34  58 N9        30.34R
JAYTON 1SSE      N/A     47  33  57 N8        30.35R
KNOX CITY 3NW    N/A     45  34  64 N6        30.35R
LK A HENRY 1NW   N/A     48  33  56 N3        30.35R
NORTHFIELD 1S    N/A     48  33  55 NE8       30.38S
ODELL 4ENE       N/A     41  34  75 N7        30.36R
PADUCAH 10SW     N/A     46  32  58 NW6       30.37R
POST 1NE         N/A     47  32  56 NW7       30.36R
RRING SPRGS 3N   N/A     46  32  57 N8        30.38R
SEYMOUR 3NW      N/A     48  34  58 N8        30.34R
SPUR 1W          N/A     47  32  55 N8        30.35R
WEINERT 2NNE     N/A     45  34  66 CALM      30.35R
WHITE RVR 6NE    N/A     49  30  47 N12       30.36R
$$

TXZ052-054-060>062-072-078-127-140-154-169-311300-
TEXAS TECH WEST TEXAS MESONET/PERMIAN BASIN/
CONCHO VALLEY/BIG COUNTRY/EDWARDS PLATEAU

CITY           SKY/WX    TMP DP  RH WIND       PRES   REMARKS
COYANOSA 2N      N/A     63  46  54 NE8       30.31R
JUNCTION 1SSW    N/A     63  53  69 NE7       30.26R
MERTZON 3NNE     N/A     53  41  63 NE6       30.31R
SAN ANGELO 7NW   N/A     54  36  50 N2        30.30R
STRLNG CT 4WSW   N/A     44  36  73 CALM      30.33R
ST LAWRNCE 5SW   N/A     52  37  56 N8        30.31R
SWEETWATR 11SW   N/A     49  36  61 NE12      30.33R
WALL 1E          N/A     54  42  64 N5        30.30R
$$

TXZ055-058-074-075-080-082-311300-
TEXAS TECH WEST TEXAS MESONET/FAR WEST/SOUTHWEST MOUNTAINS/TRANS PECOS

CITY           SKY/WX    TMP DP  RH WIND       PRES   REMARKS
PRSMN GAP BBNP   N/A     65  51  59 N10       30.25R
GUADLPE MTN NP   N/A     51  34  51 NE13      30.42R
$$